Location: Centerville
(32.8776°N, 96.6203°W)
Time: 04:30:25
(UTC+00:00)

Spot 2 Rocket - Pass Details

Date: 17 June 2021
Orbit: 757 x 772 km, 98.5° (Epoch: 29 July)

Event Time Altitude Azimuth Distance (km) Brightness Sun altitude
Exits shadow 03:58:36 61° 166° (SSE) 861 3.4 -23.5°
Maximum altitude 03:59:31 90° 59° (ENE) 766 3.4 -23.6°
Drops below altitude 10° 04:04:36 10° 347° (NNW) 2,303 6.9 -24.2°
Sets 04:06:55 0° 348° (NNW) 3,234 7.8 -24.5°
